TimeEDT,TemperatureF,Dew PointF,Humidity,Sea Level PressureIn,VisibilityMPH,Wind Direction,Wind SpeedMPH,Gust SpeedMPH,PrecipitationIn,Events,Conditions,WindDirDegrees,DateUTC
12:15 AM,26.6,21.0,79,30.20,10.0,WNW,12.7,18.4,N/A,,Overcast,300,2013-03-14 04:15:00
12:34 AM,27.1,21.2,78,30.20,10.0,NW,15.0,21.9,N/A,,Overcast,310,2013-03-14 04:34:00
12:55 AM,27.1,21.2,78,30.20,10.0,NW,15.0,18.4,N/A,,Overcast,310,2013-03-14 04:55:00
1:14 AM,27.3,21.4,78,30.21,10.0,NW,11.5,18.4,N/A,,Overcast,320,2013-03-14 05:14:00
1:34 AM,26.8,21.7,81,30.21,10.0,NW,15.0,-,N/A,,Overcast,310,2013-03-14 05:34:00
1:55 AM,26.6,21.0,79,30.20,10.0,WNW,12.7,19.6,N/A,,Scattered Clouds,300,2013-03-14 05:55:00
2:14 AM,27.1,20.8,77,30.21,10.0,NW,12.7,19.6,N/A,,Mostly Cloudy,310,2013-03-14 06:14:00
3:14 AM,27.1,20.5,76,30.21,10.0,WNW,12.7,-,N/A,,Overcast,300,2013-03-14 07:14:00
3:34 AM,27.0,19.6,74,30.21,10.0,NW,12.7,19.6,N/A,,Mostly Cloudy,320,2013-03-14 07:34:00
3:54 AM,27.0,19.4,73,30.20,10.0,NW,10.4,17.3,N/A,,Mostly Cloudy,310,2013-03-14 07:54:00
4:15 AM,27.0,20.1,75,30.20,10.0,NW,11.5,17.3,N/A,,Mostly Cloudy,320,2013-03-14 08:15:00
4:34 AM,27.0,20.1,75,30.20,10.0,NW,11.5,-,N/A,,Mostly Cloudy,320,2013-03-14 08:34:00
4:54 AM,27.0,19.0,72,30.19,10.0,NW,13.8,17.3,N/A,,Mostly Cloudy,310,2013-03-14 08:54:00
5:15 AM,26.4,19.4,75,30.19,10.0,NW,10.4,-,N/A,,Scattered Clouds,310,2013-03-14 09:15:00
5:34 AM,26.2,19.0,74,30.19,10.0,WNW,9.2,17.3,N/A,,Scattered Clouds,300,2013-03-14 09:34:00
5:55 AM,26.2,18.5,73,30.19,10.0,NW,9.2,16.1,N/A,,Clear,310,2013-03-14 09:55:00
6:15 AM,26.6,18.3,71,30.20,10.0,NW,10.4,-,N/A,,Scattered Clouds,320,2013-03-14 10:15:00
6:34 AM,26.6,18.5,71,30.20,10.0,NNW,8.1,-,N/A,,Scattered Clouds,330,2013-03-14 10:34:00
6:55 AM,26.2,19.0,74,30.21,10.0,NW,10.4,-,N/A,,Scattered Clouds,320,2013-03-14 10:55:00
7:14 AM,26.2,20.1,78,30.21,10.0,NNW,8.1,-,N/A,,Scattered Clouds,340,2013-03-14 11:14:00
7:34 AM,25.7,20.5,81,30.21,10.0,NW,5.8,-,N/A,,Mostly Cloudy,320,2013-03-14 11:34:00
7:54 AM,25.5,20.1,80,30.22,10.0,NNW,8.1,-,N/A,,Scattered Clouds,330,2013-03-14 11:54:00
8:15 AM,25.2,18.9,77,30.22,10.0,NW,4.6,-,N/A,,Scattered Clouds,320,2013-03-14 12:15:00
8:34 AM,25.2,18.9,77,30.22,10.0,NNW,5.8,-,N/A,,Scattered Clouds,330,2013-03-14 12:34:00
8:55 AM,25.9,18.9,75,30.22,10.0,NNW,4.6,-,N/A,,Clear,330,2013-03-14 12:55:00
9:14 AM,26.6,18.5,71,30.23,10.0,NW,6.9,-,N/A,,Clear,310,2013-03-14 13:14:00
9:34 AM,27.1,18.9,71,30.24,10.0,NNW,4.6,-,N/A,,Clear,340,2013-03-14 13:34:00
9:55 AM,27.3,18.7,70,30.24,10.0,NW,5.8,-,N/A,,Clear,320,2013-03-14 13:55:00
10:14 AM,27.5,19.0,71,30.24,10.0,NW,4.6,-,N/A,,Clear,310,2013-03-14 14:14:00
10:35 AM,28.2,19.6,70,30.25,10.0,NW,5.8,-,N/A,,Clear,310,2013-03-14 14:35:00
10:55 AM,28.2,19.4,70,30.24,10.0,WNW,4.6,-,N/A,,Clear,300,2013-03-14 14:55:00
11:14 AM,29.1,19.9,69,30.24,10.0,WNW,6.9,-,N/A,,Clear,300,2013-03-14 15:14:00
11:35 AM,29.1,20.3,70,30.24,10.0,WNW,6.9,-,N/A,,Clear,300,2013-03-14 15:35:00
11:55 AM,29.8,21.4,71,30.23,10.0,West,5.8,-,N/A,,Clear,270,2013-03-14 15:55:00
12:14 PM,30.0,21.6,71,30.23,10.0,WSW,5.8,-,N/A,,Clear,250,2013-03-14 16:14:00
12:35 PM,30.2,21.4,70,30.22,10.0,West,6.9,-,N/A,,Scattered Clouds,280,2013-03-14 16:35:00
12:54 PM,30.4,21.6,70,30.22,10.0,West,5.8,-,N/A,,Scattered Clouds,270,2013-03-14 16:54:00
1:14 PM,29.8,21.0,70,30.22,10.0,West,8.1,-,N/A,,Clear,280,2013-03-14 17:14:00
1:35 PM,30.4,21.9,71,30.21,10.0,West,9.2,-,N/A,,Clear,270,2013-03-14 17:35:00
1:54 PM,30.9,22.1,70,30.21,10.0,WNW,9.2,-,N/A,,Clear,290,2013-03-14 17:54:00
2:14 PM,30.7,21.9,70,30.21,10.0,WNW,9.2,-,N/A,,Clear,300,2013-03-14 18:14:00
2:34 PM,30.4,22.1,71,30.20,10.0,West,9.2,-,N/A,,Scattered Clouds,260,2013-03-14 18:34:00
2:54 PM,31.3,21.7,68,30.19,10.0,West,10.4,-,N/A,,Scattered Clouds,280,2013-03-14 18:54:00
3:15 PM,31.3,22.3,69,30.19,10.0,West,9.2,-,N/A,,Scattered Clouds,280,2013-03-14 19:15:00
3:34 PM,31.5,22.3,69,30.18,10.0,West,12.7,-,N/A,,Clear,280,2013-03-14 19:34:00
3:55 PM,31.3,21.2,66,30.17,10.0,West,8.1,-,N/A,,Clear,260,2013-03-14 19:55:00
4:15 PM,31.1,21.2,67,30.16,10.0,West,12.7,-,N/A,,Clear,260,2013-03-14 20:15:00
4:34 PM,31.5,22.1,68,30.15,10.0,West,13.8,-,N/A,,Clear,270,2013-03-14 20:34:00
4:55 PM,31.6,22.8,70,30.15,10.0,West,13.8,17.3,N/A,,Clear,270,2013-03-14 20:55:00
5:15 PM,31.3,23.0,71,30.15,10.0,West,9.2,-,N/A,,Scattered Clouds,260,2013-03-14 21:15:00
5:34 PM,32.0,23.2,70,30.15,10.0,West,8.1,-,N/A,,Mostly Cloudy,270,2013-03-14 21:34:00
5:55 PM,31.8,23.2,70,30.13,10.0,West,8.1,-,N/A,,Scattered Clouds,260,2013-03-14 21:55:00
6:14 PM,31.5,22.3,69,30.12,10.0,WSW,10.4,-,N/A,,Clear,240,2013-03-14 22:14:00
6:35 PM,31.1,21.4,67,30.11,10.0,WSW,12.7,-,N/A,,Clear,250,2013-03-14 22:35:00
6:55 PM,30.7,21.7,69,30.12,10.0,West,9.2,-,N/A,,Clear,260,2013-03-14 22:55:00
7:14 PM,30.4,21.7,70,30.10,10.0,WSW,8.1,-,N/A,,Clear,240,2013-03-14 23:14:00
7:35 PM,30.0,21.7,71,30.09,10.0,SW,8.1,-,N/A,,Clear,220,2013-03-14 23:35:00
7:55 PM,30.0,21.9,72,30.08,10.0,WSW,8.1,-,N/A,,Clear,240,2013-03-14 23:55:00
8:14 PM,29.7,22.1,73,30.07,10.0,SW,5.8,-,N/A,,Clear,220,2013-03-15 00:14:00
8:35 PM,29.3,22.1,75,30.05,10.0,SW,6.9,-,N/A,,Clear,220,2013-03-15 00:35:00
8:54 PM,29.7,21.2,71,30.04,10.0,SW,6.9,-,N/A,,Clear,220,2013-03-15 00:54:00
9:15 PM,29.3,21.2,72,30.02,10.0,SW,5.8,-,N/A,,Clear,220,2013-03-15 01:15:00
9:34 PM,29.3,20.3,69,30.02,10.0,SW,6.9,-,N/A,,Clear,220,2013-03-15 01:34:00
9:54 PM,30.0,18.3,62,30.01,10.0,SW,10.4,16.1,N/A,,Clear,220,2013-03-15 01:54:00
10:15 PM,30.0,18.9,63,30.00,10.0,SW,9.2,-,N/A,,Scattered Clouds,220,2013-03-15 02:15:00
10:34 PM,30.0,20.1,67,30.01,10.0,SW,9.2,-,N/A,,Scattered Clouds,220,2013-03-15 02:34:00
10:55 PM,30.2,21.7,71,30.01,10.0,WSW,10.4,-,N/A,,Mostly Cloudy,240,2013-03-15 02:55:00
11:14 PM,30.7,22.6,72,30.00,10.0,SW,11.5,-,N/A,,Overcast,230,2013-03-15 03:14:00
11:34 PM,31.5,23.5,73,29.98,10.0,SW,12.7,18.4,N/A,,Overcast,220,2013-03-15 03:34:00
11:55 PM,31.6,23.9,73,29.97,10.0,SW,9.2,-,N/A,,Overcast,220,2013-03-15 03:55:00